Regional Weather Roundup
Issued by NWS

Home | Current Version | Previous Version | Text Only | Print | Product List | Glossary Off
Versions: 1 2 3 4 5 6 7 8 9 10 11 12 13 14 15 16 17 18 19 20 21 22 23 24 25 26 27 28 29 30 31 32 33 34 35 36 37 38 39 40 41 42 43 44 45 46 47 48 49 50

221
ASUS43 KFSD 131210
RWRSD

WEATHER ROUNDUP FOR SOUTH DAKOTA
NATIONAL WEATHER SERVICE SIOUX FALLS SD
600 AM CST SAT FEB 13 2016

NOTE: "FAIR" INDICATES FEW OR NO CLOUDS BELOW 12,000 FEET WITH NO
SIGNIFICANT WEATHER AND/OR OBSTRUCTIONS TO VISIBILITY.


SDZ001>005-009-010-012>017-131300-
NORTHWEST AND NORTH CENTRAL SOUTH DAKOTA

CITY           SKY/WX    TMP DP  RH WIND       PRES   REMARKS
BUFFALO          N/A     19  16  88 SE16      29.98F WCI   4
FAITH            N/A     13   9  84 SE23G30   30.14F WCI  -6
MOBRIDGE       CLOUDY     8  -1  66 SE20      30.30F WCI -11
$$

SDZ012>016-024>037-041>051-057-063-072>074-131300-
SOUTHWEST AND SOUTH CENTRAL SOUTH DAKOTA

CITY           SKY/WX    TMP DP  RH WIND       PRES   REMARKS
RAPID CTY ARPT CLOUDY    29  26  89 SE9       30.05F WCI  20
PIERRE         CLOUDY    13   7  77 SE23G30   30.30F WCI  -6
CUSTER         CLOUDY    30  26  85 W7        30.00F WCI  23
ELLSWORTH AFB  CLOUDY    29  28  95 SE9       30.04  WCI  20
PHILIP         CLOUDY    23  18  81 SE17G24   30.19F WCI   9
PINE RIDGE     CLOUDY    33  28  81 S14G23    30.08F WCI  23
SPEARFISH      CLOUDY    23  23 100 CALM      30.01F
WINNER         CLOUDY    18  11  74 SE17G24   30.32F WCI   3
$$

SDZ004>011-016>023-039-040-131300-
NORTHEAST SOUTH DAKOTA

CITY           SKY/WX    TMP DP  RH WIND       PRES   REMARKS
ABERDEEN       CLOUDY     4  -7  60 SE8       30.48F WCI  -9
WATERTOWN      CLOUDY    -1 -11  62 SE9       30.47F WCI -16
BROOKINGS      CLOUDY    -3 -11  68 SE7       30.51F WCI -16
SISSETON         N/A     -4 -10  75 S9        30.56F WCI -20
$$

SDZ017-020-022-023-036>040-048>070-131300-
SOUTHEAST SOUTH DAKOTA

CITY           SKY/WX    TMP DP  RH WIND       PRES   REMARKS
SIOUX FALLS    CLOUDY     0  -8  69 SE6       30.55S WCI -12
HURON          CLOUDY     6  -4  63 SE9       30.48F WCI  -8
CHAMBERLAIN    CLOUDY    12   7  83 SE18      30.37F WCI  -6
MITCHELL       CLOUDY     8   0  69 SE15      30.52F WCI  -9
YANKTON        CLOUDY     7  -2  66 SE9       30.56F WCI  -7
$$

ABBREVIATIONS USED IN REMARKS
   TC - TEMPERATURE IN CELSIUS
  WCI - WIND CHILL INDEX
   HX - HEAT INDEX
  VSB - VISIBILITY





USA.gov is the U.S. government's official web portal to all federal, state and local government web resources and services.